| time (UTC) | temp C | wind direction | speed KPH | gust KPH | rain 1hr cm | rain 24hr cm | rain mn cm | humidity % | barometer mb |
| 20260507233100 | 10 | 117 | 3.2 | 14.5 | 0.00 | 0.00 | 0.00 | 62 | 1009.5 |
| 20260507231559 | 11 | 162 | 8.0 | 19.3 | 0.00 | 0.00 | 0.00 | 58 | 1009.5 |
| 20260507230110 | 12 | 0 | 1.6 | 14.5 | 0.00 | 0.00 | 0.00 | 54 | 1009.3 |
| 20260507224601 | 12 | 138 | 3.2 | 9.7 | 0.00 | 0.00 | 0.00 | 53 | 1008.8 |
| 20260507223057 | 12 | 153 | 3.2 | 11.3 | 0.00 | 0.00 | 0.00 | 53 | 1008.8 |
| 20260507221603 | 12 | 220 | 1.6 | 16.1 | 0.00 | 0.00 | 0.00 | 53 | 1008.7 |
| 20260507220101 | 12 | 184 | 4.8 | 19.3 | 0.00 | 0.00 | 0.00 | 50 | 1008.5 |
| 20260507214555 | 13 | 0 | 6.4 | 14.5 | 0.00 | 0.00 | 0.00 | 49 | 1008.3 |
| 20260507213056 | 13 | 171 | 1.6 | 16.1 | 0.00 | 0.00 | 0.00 | 46 | 1008.2 |
| 20260507211602 | 13 | 100 | 1.6 | 16.1 | 0.00 | 0.00 | 0.00 | 46 | 1008.1 |
| 20260507210108 | 13 | 272 | 4.8 | 17.7 | 0.00 | 0.00 | 0.00 | 46 | 1008.0 |
| 20260507204558 | 13 | 127 | 3.2 | 11.3 | 0.00 | 0.00 | 0.00 | 45 | 1008.1 |
| 20260507203125 | 13 | 52 | 4.8 | 12.9 | 0.00 | 0.00 | 0.00 | 46 | 1008.0 |
| 20260507201557 | 13 | 312 | 3.2 | 14.5 | 0.00 | 0.00 | 0.00 | 47 | 1008.2 |
| 20260507200101 | 13 | 34 | 1.6 | 11.3 | 0.00 | 0.00 | 0.00 | 50 | 1008.3 |
| 20260507194618 | 13 | 185 | 1.6 | 12.9 | 0.00 | 0.00 | 0.00 | 49 | 1008.4 |
| 20260507193103 | 13 | 240 | 6.4 | 16.1 | 0.00 | 0.00 | 0.00 | 50 | 1008.4 |
| 20260507191601 | 13 | 81 | 1.6 | 11.3 | 0.00 | 0.00 | 0.00 | 49 | 1008.6 |
| 20260507184558 | 13 | 83 | 3.2 | 17.7 | 0.00 | 0.00 | 0.00 | 47 | 1008.7 |
| 20260507183100 | 13 | 360 | 3.2 | 16.1 | 0.00 | 0.00 | 0.00 | 47 | 1008.8 |
| 20260507181559 | 13 | 339 | 6.4 | 16.1 | 0.00 | 0.00 | 0.00 | 51 | 1008.8 |
| 20260507180055 | 13 | 104 | 3.2 | 14.5 | 0.00 | 0.00 | 0.00 | 47 | 1009.0 |
| 20260507174604 | 13 | 343 | 1.6 | 16.1 | 0.00 | 0.00 | 0.00 | 47 | 1008.9 |
| 20260507173129 | 14 | 217 | 3.2 | 14.5 | 0.00 | 0.00 | 0.00 | 47 | 1009.1 |
| 20260507171558 | 13 | 290 | 1.6 | 17.7 | 0.00 | 0.00 | 0.00 | 50 | 1009.3 |
| 20260507170058 | 13 | 119 | 4.8 | 14.5 | 0.00 | 0.00 | 0.00 | 47 | 1009.5 |
| 20260507164557 | 13 | 355 | 3.2 | 14.5 | 0.00 | 0.00 | 0.00 | 47 | 1009.5 |
| 20260507163102 | 13 | 155 | 3.2 | 17.7 | 0.00 | 0.00 | 0.00 | 52 | 1009.7 |
| 20260507161612 | 13 | 294 | 3.2 | 20.9 | 0.00 | 0.00 | 0.00 | 55 | 1009.7 |
| 20260507154558 | 12 | 319 | 1.6 | 9.7 | 0.00 | 0.00 | 0.00 | 53 | 1010.1 |
| 20260507153059 | 12 | 360 | 4.8 | 19.3 | 0.00 | 0.00 | 0.00 | 55 | 1010.2 |
| 20260507151558 | 12 | 325 | 4.8 | 14.5 | 0.00 | 0.00 | 0.00 | 56 | 1010.3 |
| 20260507150057 | 12 | 20 | 3.2 | 16.1 | 0.00 | 0.00 | 0.00 | 54 | 1010.4 |
| 20260507144612 | 12 | 0 | 6.4 | 17.7 | 0.00 | 0.00 | 0.00 | 57 | 1010.7 |
| 20260507143103 | 12 | 325 | 3.2 | 12.9 | 0.00 | 0.00 | 0.00 | 58 | 1010.9 |
| 20260507141601 | 11 | 0 | 3.2 | 11.3 | 0.00 | 0.00 | 0.00 | 61 | 1011.0 |
| 20260507140056 | 11 | 360 | 3.2 | 12.9 | 0.00 | 0.00 | 0.00 | 57 | 1011.2 |
| 20260507134557 | 11 | 105 | 4.8 | 14.5 | 0.00 | 0.05 | 0.00 | 60 | 1011.2 |
| 20260507133139 | 10 | 111 | 4.8 | 12.9 | 0.00 | 0.05 | 0.00 | 61 | 1011.2 |
| 20260507131554 | 10 | 12 | 4.8 | 12.9 | 0.00 | 0.05 | 0.00 | 66 | 1011.3 |
| 20260507124601 | 7 | 0 | 0.0 | 4.8 | 0.00 | 0.13 | 0.00 | 89 | 1011.4 |
| 20260507123054 | 6 | 0 | 0.0 | 1.6 | 0.00 | 0.13 | 0.00 | 93 | 1011.6 |
| 20260507121555 | 3 | 0 | 0.0 | 1.6 | 0.00 | 0.13 | 0.00 | 92 | 1011.5 |
| 20260507120055 | 2 | 0 | 0.0 | 3.2 | 0.00 | 0.13 | 0.00 | 92 | 1011.4 |
| 20260507114609 | 1 | 58 | 1.6 | 3.2 | 0.00 | 0.20 | 0.00 | 90 | 1011.6 |
| 20260507113055 | 1 | 58 | 1.6 | 3.2 | 0.00 | 0.20 | 0.00 | 88 | 1011.4 |
| 20260507111603 | 1 | 0 | 0.0 | 3.2 | 0.00 | 0.20 | 0.00 | 87 | 1011.3 |
| 20260507104605 | 1 | 24 | 0.0 | 3.2 | 0.00 | 0.46 | 0.00 | 87 | 1011.2 |
| 20260507103057 | 1 | 0 | 0.0 | 1.6 | 0.00 | 0.46 | 0.00 | 86 | 1011.2 |
| 20260507101603 | 1 | 0 | 0.0 | 3.2 | 0.00 | 0.46 | 0.00 | 86 | 1011.1 |
| 20260507100058 | 1 | 24 | 1.6 | 3.2 | 0.00 | 0.46 | 0.00 | 86 | 1011.1 |
| 20260507094602 | 1 | 0 | 0.0 | 0.0 | 0.00 | 0.64 | 0.00 | 86 | 1010.9 |
| 20260507093105 | 1 | 0 | 0.0 | 0.0 | 0.00 | 0.64 | 0.00 | 85 | 1011.0 |
| 20260507091558 | 1 | 0 | 0.0 | 0.0 | 0.00 | 0.64 | 0.00 | 85 | 1011.1 |
| 20260507090105 | 1 | 0 | 0.0 | 0.0 | 0.00 | 0.64 | 0.00 | 84 | 1011.1 |
| 20260507084601 | 1 | 0 | 0.0 | 0.0 | 0.00 | 0.89 | 0.00 | 83 | 1011.2 |
| 20260507083056 | 1 | 0 | 0.0 | 0.0 | 0.00 | 0.89 | 0.00 | 84 | 1011.1 |
| 20260507081557 | 2 | 0 | 0.0 | 0.0 | 0.00 | 0.89 | 0.00 | 83 | 1011.2 |
| 20260507080101 | 2 | 0 | 0.0 | 0.0 | 0.00 | 0.89 | 0.00 | 83 | 1011.3 |
| 20260507074558 | 2 | 0 | 0.0 | 0.0 | 0.00 | 0.89 | 0.00 | 82 | 1011.3 |
| 20260507073109 | 3 | 0 | 0.0 | 0.0 | 0.00 | 0.89 | 0.00 | 82 | 1011.3 |
| 20260507071557 | 3 | 0 | 0.0 | 0.0 | 0.00 | 0.89 | 0.00 | 81 | 1011.3 |
| 20260507070105 | 4 | 0 | 0.0 | 0.0 | 0.00 | 0.89 | 0.00 | 80 | 1011.4 |
| 20260507064559 | 4 | 0 | 0.0 | 0.0 | 0.00 | 0.97 | 0.00 | 80 | 1011.3 |
| 20260507063054 | 4 | 0 | 0.0 | 0.0 | 0.00 | 0.97 | 0.00 | 80 | 1011.5 |
| 20260507061556 | 5 | 0 | 0.0 | 0.0 | 0.00 | 0.97 | 0.00 | 79 | 1011.6 |
| 20260507060100 | 5 | 0 | 0.0 | 0.0 | 0.00 | 0.97 | 0.00 | 78 | 1011.7 |
| 20260507054557 | 5 | 0 | 0.0 | 0.0 | 0.00 | 1.14 | 0.00 | 77 | 1011.7 |
| 20260507053124 | 6 | 0 | 0.0 | 0.0 | 0.00 | 1.14 | 0.00 | 76 | 1012.0 |
| 20260507051601 | 6 | 0 | 0.0 | 0.0 | 0.00 | 1.14 | 0.00 | 77 | 1012.1 |
| 20260507050112 | 6 | 0 | 0.0 | 0.0 | 0.00 | 1.14 | 0.00 | 76 | 1012.2 |
| 20260507044622 | 6 | 0 | 0.0 | 0.0 | 0.00 | 1.17 | 0.00 | 75 | 1012.3 |
| 20260507043111 | 6 | 0 | 0.0 | 0.0 | 0.00 | 1.17 | 0.00 | 75 | 1012.2 |
| 20260507041557 | 6 | 0 | 0.0 | 0.0 | 0.00 | 1.17 | 0.00 | 74 | 1012.3 |
| 20260507040106 | 6 | 0 | 0.0 | 3.2 | 0.00 | 1.17 | 0.00 | 73 | 1012.4 |
| 20260507034604 | 6 | 126 | 1.6 | 6.4 | 0.00 | 1.17 | 1.17 | 73 | 1012.2 |
| 20260507033124 | 6 | 83 | 0.0 | 4.8 | 0.00 | 1.17 | 1.17 | 72 | 1012.1 |
| 20260507031604 | 6 | 0 | 0.0 | 3.2 | 0.00 | 1.17 | 1.17 | 72 | 1012.0 |
| 20260507030110 | 6 | 0 | 0.0 | 4.8 | 0.00 | 1.17 | 1.17 | 74 | 1012.1 |
| 20260507024614 | 6 | 0 | 1.6 | 3.2 | 0.00 | 1.17 | 1.17 | 73 | 1011.9 |
| 20260507023102 | 6 | 0 | 0.0 | 3.2 | 0.00 | 1.17 | 1.17 | 74 | 1011.7 |
| 20260507021558 | 6 | 0 | 0.0 | 1.6 | 0.00 | 1.17 | 1.17 | 76 | 1011.5 |
| 20260507020104 | 6 | 0 | 0.0 | 3.2 | 0.00 | 1.17 | 1.17 | 75 | 1011.4 |
| 20260507014605 | 7 | 0 | 0.0 | 1.6 | 0.00 | 1.32 | 1.17 | 75 | 1011.3 |
| 20260507013103 | 7 | 0 | 0.0 | 1.6 | 0.00 | 1.32 | 1.17 | 75 | 1011.2 |
| 20260507011559 | 7 | 0 | 0.0 | 1.6 | 0.00 | 1.32 | 1.17 | 72 | 1011.4 |
| 20260507010056 | 7 | 0 | 0.0 | 1.6 | 0.00 | 1.32 | 1.17 | 73 | 1011.3 |
| 20260507004557 | 8 | 0 | 0.0 | 1.6 | 0.00 | 1.32 | 1.17 | 71 | 1011.3 |
| 20260507003104 | 8 | 0 | 0.0 | 3.2 | 0.00 | 1.32 | 1.17 | 69 | 1011.4 |
| 20260507001602 | 8 | 186 | 0.0 | 11.3 | 0.00 | 1.32 | 1.17 | 67 | 1011.2 |
| 20260507000056 | 8 | 0 | 0.0 | 9.7 | 0.00 | 1.32 | 1.17 | 65 | 1011.6 |
| 20260506234605 | 9 | 123 | 1.6 | 6.4 | 0.00 | 1.32 | 1.17 | 63 | 1011.2 |